Location: Hackbridge
(51.3833°N, 0.1500°W)
Time: 04:31:16
(UTC+00:00)

Cosmos 1825 Rocket - Pass Details

Date: 13 October 2019
Orbit: 605 x 630 km, 82.5° (Epoch: 18 November)

Event Time Altitude Azimuth Distance (km) Brightness Sun altitude
Rises 17:50:54 0° 351° (N) 2,880 7.1 -6.8°
Reaches altitude 10° 17:53:09 10° 355° (N) 1,974 6.2 -7.1°
Maximum altitude 17:57:29 63° 77° (ENE) 686 3.5 -7.8°
Drops below altitude 10° 18:01:49 10° 159° (SSE) 1,971 6.0 -8.5°
Sets 18:04:03 0° 163° (SSE) 2,876 6.8 -8.8°
